sat.trackr.live / text

‹ back to catalog

STARLINK-5086

NORAD 54856 · 2022-177AN

PAYLOAD ACTIVE UNKNOWN

§ Identity

Operator
Country
US
Launch date
2022-12-28
Launch site
AFETR
Launch vehicle
Mass (kg)
RCS (m²)

Purposes: comms

External: N2YO · Heavens-Above · Gunter

§ Orbital elements

Epoch: 2026-05-25T03:47:42.388800Z

Period
94.27 min
Inclination
43.0028°
Eccentricity
0.0001129
Mean motion
15.27576962 rev/d
Perigee alt
482.3 km
Apogee alt
483.8 km
Semi-major
6,861.2 km
B*
8.8246e-6
RAAN
49.8814°
Arg perigee
220.9688°
Mean anomaly
139.1079°
Rev number
18,878

§ Raw data

STARLINK-50861 54856U 22177AN  26145.15812950 -.00000019  00000+0  88246-5 0  99992 54856  43.0028  49.8814 0001129 220.9688 139.1079 15.27576962188781

JSON: /api/v1/satellites/54856 · /tle

For live sub-satellite position, see the globe view (requires WebGL).

§ Visibility from observer

Set your observer location to see the next 7 days of passes ≥ 10°. The values pass through the URL so the page stays shareable.

No JS? Fill the form by hand. The geolocation button needs JavaScript.